Location: Newport
(44.6370°N, 124.0520°W)
Time: 07:45:44
(UTC-07:00)

Vanguard 2 Rocket - Visible Passes

Search period start: 19 October 2017 00:00
Search period end: 29 October 2017 00:00
Orbit: 555 x 3327 km, 32.9° (Epoch: 18 October)

Date Brightness Start Highest point End Pass type
(mag) Time Alt. Az. Time Alt. Az. Time Alt. Az.
19 Oct 10.9 20:31:05 10° WSW 20:39:21 17° SW 20:49:13 10° S visible
20 Oct 10.7 19:29:56 10° WSW 19:38:49 21° SSW 19:50:29 10° SSE visible
21 Oct 10.5 18:29:49 10° WSW 18:38:25 25° SSW 18:50:37 10° SSE visible
22 Oct 11.0 19:47:24 10° WSW 19:53:02 13° SSW 19:59:38 10° S visible
23 Oct 10.8 18:46:00 10° WSW 18:52:44 17° SSW 19:01:26 10° S visible
